Regional Weather Roundup
Issued by NWS Jackson, KY

Home | Current Version | Previous Version | Graphics & Text | Print | Product List | Glossary On
Versions: 1 2 3 4 5 6 7 8 9 10 11 12 13 14 15 16 17 18 19 20 21 22 23 24 25 26 27 28 29 30 31 32 33 34 35 36 37 38 39 40 41 42 43 44 45 46 47 48 49 50
324
ASUS43 KJKL 252310
RWRJKL

EAST KENTUCKY HOURLY WEATHER ROUNDUP
NATIONAL WEATHER SERVICE JACKSON KY
700 PM EDT TUE APR 25 2017

NOTE: "FAIR" INDICATES FEW OR NO CLOUDS BELOW 12,000 FEET WITH
NO SIGNIFICANT WEATHER AND/OR OBSTRUCTIONS TO VISIBILITY.

* THESE REPORTS ARE NOT UNDER NWS QUALITY CONTROL AND MAY NOT
  REPORT WEATHER SUCH AS PRECIPITATION AND FOG.

KYZ079-080-083-085-087-088-110-112-115-119-120-260000
...EASTERN KENTUCKY...

CITY           SKY/WX    TMP DP  RH WIND       PRES   REMARKS
JACKSON        CLOUDY    71  55  56 CALM      29.74S
LONDON         CLOUDY    71  54  54 W7        29.73F
SOMERSET*      SUNNY     70  52  52 CALM      29.74S
MONTICELLO*    SUNNY     71  56  58 NE8       29.74F
MIDDLESBORO*   CLOUDY    70  58  65 CALM      29.75S
HARLAN APT*    CLOUDY    70  54  56 SW5       29.75R
PIKE CO APT*   PTSUNNY   67  56  70 NW3       29.75S
BIG SANDY APT* CLOUDY    69  56  62 CALM      29.74S
$$

KYZ035-036-041-042-044-050-067-078-099-260000
...CENTRAL KENTUCKY...

CITY           SKY/WX    TMP DP  RH WIND       PRES   REMARKS
MT STERLING*   SUNNY     72  59  64 NW3       29.73S
FLEMING/MASON* SUNNY     75  57  54 CALM      29.72S
DANVILLE*      SUNNY     70  54  56 S5        29.73S
LEXINGTON      SUNNY     72  55  55 SW6       29.71F
FRANKFORT      SUNNY     73  55  53 S7        29.69F
LOUISVILLE     MOSUNNY   76  56  49 S9        29.67F
LEBANON*         N/A     72  55  56 S3        29.71S
GLASGOW*       SUNNY     74  55  52 SE6       29.70S
BOWLING GREEN  MOSUNNY   75  56  51 S8        29.69F
$$

KYZ091>093-OHZ055-061-077-WVZ005-015-034-035-042-260000
...SOUTHERN OHIO/WEST VIRGINIA...

CITY           SKY/WX    TMP DP  RH WIND       PRES   REMARKS
COVINGTON      MOSUNNY   74  58  57 S8        29.69S
COLUMBUS       CLOUDY    73  55  53 E9        29.71F
DAYTON         PTSUNNY   74  55  51 SE10      29.70F
WILMINGTON     PTSUNNY   75  58  55 SW5       29.70F
HUNTINGTON     PTSUNNY   70  56  61 CALM      29.72S
CHARLESTON     MOSUNNY   70  57  63 CALM      29.73S
PINEVILLE*     CLOUDY    67  57  68 MISG      29.80S
BECKLEY        CLOUDY    61  55  81 NW5       29.78S
BLUEFIELD      CLOUDY    58  55  90 CALM      29.79R
$$

VAZ002-007-008-TNZ017-027-036-066-071-260000
...SOUTHWEST VIRGINIA/EAST TENNESSEE...

CITY           SKY/WX    TMP DP  RH WIND       PRES   REMARKS
WISE*          CLOUDY    64  54  68 CALM      29.80R
JONESVILLE*    CLOUDY    68  57  68 W6        29.77S
ABINGDON*      CLOUDY    65  58  77 SW7       29.77S
BRISTOL        PTSUNNY   67  56  67 S8        29.75S
MORRISTOWN*    CLOUDY    68  57  68 SW5       29.75
SEVIERVILLE*   CLOUDY    66  54  63 CALM      29.75S
KNOXVILLE      MOSUNNY   70  55  59 E8        29.73S
LAFOLLETTE*    CLOUDY    72  57  60 S5        29.76R
OAK RIDGE      CLOUDY    74  54  49 SE8       29.74R
CROSSVILLE     SUNNY     70  54  56 W5        29.76S
NASHVILLE      SUNNY     76  56  49 S8        29.70F
$$

...KEY TO REMARKS...
VSB - VISIBILITY IN MILES
WCI - WIND CHILL INDEX
HX  - HEAT INDEX

$$




USA.gov is the U.S. government's official web portal to all federal, state and local government web resources and services.